2020-11-18 00:07:53 r, 19.19m,0000000002Hz,0000258410c,0000000.561s, 009.6C,00002191
2020-11-18 00:17:53 r, 19.23m,0000000002Hz,0000268793c,0000000.583s, 009.6C,00002191
2020-11-18 00:27:55 r, 19.42m,0000000001Hz,0000320492c,0000000.696s, 009.6C,00002191
2020-11-18 00:37:53 r, 19.34m,0000000002Hz,0000296498c,0000000.643s, 009.9C,00002191
2020-11-18 00:47:55 r, 19.37m,0000000002Hz,0000304253c,0000000.660s, 009.9C,00002191
2020-11-18 00:57:54 r, 19.52m,0000000001Hz,0000348353c,0000000.756s, 009.9C,00002191
2020-11-18 01:07:53 r, 19.52m,0000000001Hz,0000349328c,0000000.758s, 009.9C,00002191
2020-11-18 01:17:55 r, 19.40m,0000000001Hz,0000313039c,0000000.679s, 009.9C,00002191
2020-11-18 01:27:53 r, 19.30m,0000000001Hz,0000285195c,0000000.619s, 010.3C,00002191
2020-11-18 01:37:53 r, 19.37m,0000000002Hz,0000304516c,0000000.661s, 010.3C,00002191
2020-11-18 01:47:53 r, 19.37m,0000000001Hz,0000307177c,0000000.667s, 010.6C,00002191
2020-11-18 01:57:54 r, 19.29m,0000000002Hz,0000283194c,0000000.615s, 010.6C,00002191
2020-11-18 02:07:53 r, 19.08m,0000000002Hz,0000232653c,0000000.505s, 010.6C,00002191
2020-11-18 02:17:54 r, 18.97m,0000000003Hz,0000210365c,0000000.457s, 010.9C,00002191
2020-11-18 02:27:53 r, 19.25m,0000000002Hz,0000273447c,0000000.593s, 010.9C,00002191
2020-11-18 02:37:53 r, 19.34m,0000000002Hz,0000296717c,0000000.644s, 010.9C,00002191
2020-11-18 02:47:55 r, 19.26m,0000000001Hz,0000274533c,0000000.596s, 010.9C,00002191
2020-11-18 02:57:53 r, 19.87m,0000000001Hz,0000480821c,0000001.043s, 010.9C,00002191
2020-11-18 03:07:53 r, 20.50m,0000000000Hz,0000858950c,0000001.864s, 010.9C,00002191
2020-11-18 03:17:55 r, 19.96m,0000000001Hz,0000525037c,0000001.139s, 010.6C,00002191
2020-11-18 03:27:53 r, 19.71m,0000000001Hz,0000417751c,0000000.907s, 010.6C,00002191
2020-11-18 03:37:53 r, 19.98m,0000000001Hz,0000533667c,0000001.158s, 010.9C,00002191
2020-11-18 03:47:53 r, 19.59m,0000000001Hz,0000372262c,0000000.808s, 010.9C,00002191
2020-11-18 03:57:54 r, 20.34m,0000000001Hz,0000740042c,0000001.606s, 010.9C,00002191
2020-11-18 04:07:53 r, 19.84m,0000000001Hz,0000470521c,0000001.021s, 010.9C,00002191
2020-11-18 04:17:54 r, 20.45m,0000000001Hz,0000812135c,0000001.762s, 010.9C,00002191
2020-11-18 04:27:53 r, 20.33m,0000000001Hz,0000732591c,0000001.590s, 010.9C,00002191
2020-11-18 04:37:53 r, 20.49m,0000000000Hz,0000847298c,0000001.839s, 010.9C,00002191
2020-11-18 04:47:53 r, 20.63m,0000000000Hz,0000965551c,0000002.095s, 010.9C,00002191
2020-11-18 04:57:55 r, 20.73m,0000000001Hz,0001058127c,0000002.296s, 010.9C,00002191
2020-11-18 05:07:53 r, 20.53m,0000000001Hz,0000878867c,0000001.907s, 010.9C,00002191
2020-11-18 05:17:53 r, 19.81m,0000000001Hz,0000455871c,0000000.989s, 010.9C,00002191
2020-11-18 05:27:54 r, 19.37m,0000000001Hz,0000306165c,0000000.664s, 011.2C,00002191
2020-11-18 05:37:53 r, 19.21m,0000000002Hz,0000263172c,0000000.571s, 011.2C,00002191
2020-11-18 05:47:53 r, 19.09m,0000000002Hz,0000235894c,0000000.512s, 011.6C,00002191
2020-11-18 05:57:53 r, 19.16m,0000000002Hz,0000250445c,0000000.544s, 011.6C,00002191
2020-11-18 06:07:53 r, 19.30m,0000000002Hz,0000285756c,0000000.620s, 011.9C,00002191
2020-11-18 06:17:53 r, 18.98m,0000000002Hz,0000212984c,0000000.462s, 011.9C,00002191
2020-11-18 06:27:54 r, 18.95m,0000000002Hz,0000207415c,0000000.450s, 012.2C,00002191
2020-11-18 06:37:53 r, 18.56m,0000000003Hz,0000145013c,0000000.315s, 012.2C,00002191
2020-11-18 06:47:53 r, 17.64m,0000000007Hz,0000062368c,0000000.135s, 012.2C,00002191
2020-11-18 06:57:55 r, 16.18m,0000000028Hz,0000016300c,0000000.035s, 012.2C,00002191
2020-11-18 07:07:53 r, 14.18m,0000000179Hz,0000000000c,0000000.000s, 012.2C,00002191
2020-11-18 07:17:53 r, 12.25m,0000001069Hz,0000000000c,0000000.000s, 012.2C,00002191
2020-11-18 07:27:55 r, 10.38m,0000005963Hz,0000000000c,0000000.000s, 012.2C,00002191
2020-11-18 07:37:53 r, 08.91m,0000023009Hz,0000000000c,0000000.000s, 012.2C,00002191
2020-11-18 07:47:53 r, 08.04m,0000051469Hz,0000000000c,0000000.000s, 012.2C,00002191
2020-11-18 07:57:53 r, 07.10m,0000121906Hz,0000000000c,0000000.000s, 012.2C,00002191
2020-11-18 08:07:54 r, 06.69m,0000178733Hz,0000000000c,0000000.000s, 012.2C,00002191
2020-11-18 08:17:53 r, 06.03m,0000328973Hz,0000000000c,0000000.000s, 012.5C,00002191
2020-11-18 08:27:54 r, 00.00m,0000461529Hz,0000000000c,0000000.000s, 012.8C,00002191
2020-11-18 08:37:53 r, 00.00m,0000597992Hz,0000000000c,0000000.000s, 012.8C,00002191
2020-11-18 08:47:53 r, 00.00m,0000598144Hz,0000000000c,0000000.000s, 013.5C,00002191
2020-11-18 08:57:53 r, 00.00m,0000598013Hz,0000000000c,0000000.000s, 013.5C,00002191
2020-11-18 09:07:55 r, 00.00m,0000598095Hz,0000000000c,0000000.000s, 013.8C,00002191
2020-11-18 09:17:53 r, 00.00m,0000597907Hz,0000000000c,0000000.000s, 014.1C,00002191
2020-11-18 09:27:55 r, 00.00m,0000597915Hz,0000000000c,0000000.000s, 014.5C,00002191
2020-11-18 09:37:53 r, 00.00m,0000597913Hz,0000000000c,0000000.000s, 014.5C,00002191
2020-11-18 09:47:53 r, 00.00m,0000597871Hz,0000000000c,0000000.000s, 015.1C,00002191
2020-11-18 09:57:55 r, 00.00m,0000597870Hz,0000000000c,0000000.000s, 015.4C,00002191
2020-11-18 10:07:53 r, 00.00m,0000597903Hz,0000000000c,0000000.000s, 016.1C,00002191
2020-11-18 10:17:53 r, 00.00m,0000597827Hz,0000000000c,0000000.000s, 016.1C,00002191
2020-11-18 10:27:53 r, 00.00m,0000597768Hz,0000000000c,0000000.000s, 016.4C,00002191
2020-11-18 10:37:55 r, 00.00m,0000597784Hz,0000000000c,0000000.000s, 016.7C,00002191
2020-11-18 10:47:53 r, 00.00m,0000597819Hz,0000000000c,0000000.000s, 017.0C,00002191
2020-11-18 10:57:54 r, 00.00m,0000597611Hz,0000000000c,0000000.000s, 017.7C,00002191
2020-11-18 11:07:53 r, 00.00m,0000597528Hz,0000000000c,0000000.000s, 018.3C,00002191
2020-11-18 11:17:53 r, 00.00m,0000597608Hz,0000000000c,0000000.000s, 018.3C,00002191
2020-11-18 11:27:55 r, 00.00m,0000597576Hz,0000000000c,0000000.000s, 018.6C,00002191
2020-11-18 11:37:53 r, 00.00m,0000597461Hz,0000000000c,0000000.000s, 018.6C,00002191
2020-11-18 11:47:53 r, 00.00m,0000597517Hz,0000000000c,0000000.000s, 019.0C,00002191
2020-11-18 11:57:55 r, 00.00m,0000597465Hz,0000000000c,0000000.000s, 019.0C,00002191
2020-11-18 12:07:54 r, 00.00m,0000597589Hz,0000000000c,0000000.000s, 019.0C,00002191
2020-11-18 12:17:53 r, 00.00m,0000597504Hz,0000000000c,0000000.000s, 019.0C,00002191
2020-11-18 12:27:53 r, 00.00m,0000597520Hz,0000000000c,0000000.000s, 018.6C,00002191
2020-11-18 12:37:54 r, 00.00m,0000597581Hz,0000000000c,0000000.000s, 018.6C,00002191
2020-11-18 12:47:53 r, 00.00m,0000597537Hz,0000000000c,0000000.000s, 018.6C,00002191
2020-11-18 12:57:54 r, 00.00m,0000597462Hz,0000000000c,0000000.000s, 019.0C,00002191
2020-11-18 13:07:53 r, 00.00m,0000597497Hz,0000000000c,0000000.000s, 019.0C,00002191
2020-11-18 13:17:53 r, 00.00m,0000597404Hz,0000000000c,0000000.000s, 019.3C,00002191
2020-11-18 13:27:53 r, 00.00m,0000597434Hz,0000000000c,0000000.000s, 019.3C,00002191
2020-11-18 13:37:55 r, 00.00m,0000597501Hz,0000000000c,0000000.000s, 019.3C,00002191
2020-11-18 13:47:53 r, 00.00m,0000597515Hz,0000000000c,0000000.000s, 019.3C,00002191
2020-11-18 13:57:55 r, 00.00m,0000597523Hz,0000000000c,0000000.000s, 019.0C,00002191
2020-11-18 14:07:53 r, 00.00m,0000597626Hz,0000000000c,0000000.000s, 018.6C,00002191
2020-11-18 14:17:53 r, 00.00m,0000597565Hz,0000000000c,0000000.000s, 018.6C,00002191
2020-11-18 14:27:55 r, 00.00m,0000597559Hz,0000000000c,0000000.000s, 018.3C,00002191
2020-11-18 14:37:53 r, 00.00m,0000597634Hz,0000000000c,0000000.000s, 018.3C,00002191
2020-11-18 14:47:53 r, 00.00m,0000597667Hz,0000000000c,0000000.000s, 018.0C,00002191
2020-11-18 14:57:53 r, 00.00m,0000597643Hz,0000000000c,0000000.000s, 018.0C,00002191
2020-11-18 15:07:54 r, 00.00m,0000597758Hz,0000000000c,0000000.000s, 017.7C,00002191
2020-11-18 15:17:53 r, 00.00m,0000597648Hz,0000000000c,0000000.000s, 017.4C,00002191
2020-11-18 15:27:54 r, 00.00m,0000597795Hz,0000000000c,0000000.000s, 017.4C,00002191
2020-11-18 15:37:53 r, 00.00m,0000597811Hz,0000000000c,0000000.000s, 016.7C,00002191
2020-11-18 15:47:53 r, 00.00m,0000563130Hz,0000000000c,0000000.000s, 016.4C,00002191
2020-11-18 15:57:53 r, 00.00m,0000458929Hz,0000000000c,0000000.000s, 016.1C,00002191
2020-11-18 16:07:55 r, 05.82m,0000397198Hz,0000000000c,0000000.000s, 016.1C,00002191
2020-11-18 16:17:53 r, 06.38m,0000236839Hz,0000000000c,0000000.000s, 016.1C,00002191
2020-11-18 16:27:55 r, 06.96m,0000139701Hz,0000000000c,0000000.000s, 015.7C,00002191
2020-11-18 16:37:53 r, 07.69m,0000071038Hz,0000000000c,0000000.000s, 015.7C,00002191
2020-11-18 16:47:53 r, 08.61m,0000030496Hz,0000000000c,0000000.000s, 015.7C,00002191
2020-11-18 16:57:54 r, 10.05m,0000008113Hz,0000000000c,0000000.000s, 015.4C,00002191
2020-11-18 17:07:54 r, 11.87m,0000001511Hz,0000000000c,0000000.000s, 015.4C,00002191
2020-11-18 17:17:53 r, 13.84m,0000000246Hz,0000000000c,0000000.000s, 015.4C,00002191
2020-11-18 17:27:54 r, 15.80m,0000000040Hz,0000011401c,0000000.025s, 015.4C,00002191
2020-11-18 17:37:53 r, 17.35m,0000000010Hz,0000047659c,0000000.103s, 015.1C,00002191
2020-11-18 17:47:53 r, 18.60m,0000000003Hz,0000150792c,0000000.327s, 015.1C,00002191
2020-11-18 17:57:53 r, 18.91m,0000000002Hz,0000201708c,0000000.438s, 015.1C,00002191
2020-11-18 18:07:55 r, 18.91m,0000000002Hz,0000201503c,0000000.437s, 015.1C,00002191
2020-11-18 18:17:53 r, 19.09m,0000000002Hz,0000236860c,0000000.514s, 015.1C,00002191
2020-11-18 18:27:55 r, 19.11m,0000000002Hz,0000239913c,0000000.521s, 015.1C,00002191
2020-11-18 18:37:54 r, 19.20m,0000000002Hz,0000259438c,0000000.563s, 015.1C,00002191
2020-11-18 18:47:53 r, 19.12m,0000000002Hz,0000244057c,0000000.530s, 015.1C,00002191
2020-11-18 18:57:55 r, 19.10m,0000000002Hz,0000238608c,0000000.518s, 015.1C,00002191
2020-11-18 19:07:53 r, 19.46m,0000000001Hz,0000333231c,0000000.723s, 015.1C,00002191
2020-11-18 19:17:53 r, 19.37m,0000000001Hz,0000305237c,0000000.662s, 015.1C,00002191
2020-11-18 19:27:54 r, 19.54m,0000000001Hz,0000356230c,0000000.773s, 015.1C,00002191
2020-11-18 19:37:54 r, 19.47m,0000000001Hz,0000335847c,0000000.729s, 015.1C,00002191
2020-11-18 19:47:53 r, 19.48m,0000000002Hz,0000336783c,0000000.731s, 015.1C,00002191
2020-11-18 19:57:54 r, 19.33m,0000000002Hz,0000293500c,0000000.637s, 015.1C,00002191
2020-11-18 20:07:53 r, 19.26m,0000000002Hz,0000276223c,0000000.599s, 015.1C,00002191
2020-11-18 20:17:53 r, 19.42m,0000000001Hz,0000318439c,0000000.691s, 015.4C,00002191
2020-11-18 20:27:53 r, 19.68m,0000000001Hz,0000405017c,0000000.879s, 015.4C,00002191
2020-11-18 20:37:55 r, 19.37m,0000000002Hz,0000303329c,0000000.658s, 015.4C,00002191
2020-11-18 20:47:53 r, 19.88m,0000000001Hz,0000488570c,0000001.060s, 015.4C,00002191
2020-11-18 20:57:55 r, 19.84m,0000000001Hz,0000469600c,0000001.019s, 015.1C,00002191
2020-11-18 21:07:53 r, 19.55m,0000000001Hz,0000360142c,0000000.782s, 014.8C,00002191
2020-11-18 21:17:53 r, 19.43m,0000000002Hz,0000323475c,0000000.702s, 014.8C,00002191
2020-11-18 21:27:53 r, 19.41m,0000000001Hz,0000316844c,0000000.688s, 014.8C,00002191
2020-11-18 21:37:53 r, 19.36m,0000000002Hz,0000301552c,0000000.654s, 014.8C,00002191
2020-11-18 21:47:53 r, 19.48m,0000000001Hz,0000337924c,0000000.733s, 014.8C,00002191
2020-11-18 21:57:53 r, 19.68m,0000000001Hz,0000405053c,0000000.879s, 015.1C,00002191
2020-11-18 22:07:54 r, 19.37m,0000000001Hz,0000307032c,0000000.666s, 015.1C,00002191
2020-11-18 22:17:53 r, 19.37m,0000000002Hz,0000307120c,0000000.666s, 015.1C,00002191
2020-11-18 22:27:53 r, 19.40m,0000000002Hz,0000315025c,0000000.684s, 015.1C,00002191
2020-11-18 22:37:55 r, 19.27m,0000000001Hz,0000278399c,0000000.604s, 015.4C,00002191
2020-11-18 22:47:53 r, 19.18m,0000000001Hz,0000257966c,0000000.560s, 015.4C,00002191
2020-11-18 22:57:53 r, 19.05m,0000000002Hz,0000227336c,0000000.493s, 015.4C,00002191
2020-11-18 23:07:53 r, 19.13m,0000000001Hz,0000244794c,0000000.531s, 015.4C,00002191
2020-11-18 23:17:53 r, 19.22m,0000000002Hz,0000268044c,0000000.582s, 015.4C,00002191
2020-11-18 23:27:53 r, 19.40m,0000000002Hz,0000312044c,0000000.677s, 015.4C,00002191
2020-11-18 23:37:53 r, 19.39m,0000000001Hz,0000309892c,0000000.673s, 015.4C,00002191
2020-11-18 23:47:53 r, 19.59m,0000000001Hz,0000371652c,0000000.807s, 015.1C,00002191
2020-11-18 23:57:53 r, 19.51m,0000000002Hz,0000347496c,0000000.754s, 015.1C,00002191
